Home > Weather > Tallahassee > Past weeks

Flag for USA Weather for the Past 2 Weeks in Tallahassee, Florida, USA

Now
69 °F

Broken clouds.


Feels Like: 69 °F
Forecast: 65 / 79 °F
Wind: 8 mph from North

Location: Tallahassee Regional Airport

Current Time: May 4, 2016 at 8:27:49 AM

Latest Report: May 4, 2016 at 7:53 AM


Visibility: 10 mi

Pressure: 29.82 "Hg

Humidity: 81%

Dew Point: 63 °F

Location of TallahasseeLocation

Historic Weather in Tallahassee — Graph

°F

Tallahassee Temperature Yesterday

Maximum temperature yesterday: 90 °F (at 2:53 PM)
Minimum temperature yesterday: 69 °F (at 5:01 AM)
Average temperature yesterday: 77 °F

High & Low Weather Summary for the Past Weeks

 TemperatureHumidityPressure
High90 °F (Apr 29, 3:53 PM)97% (Apr 23, 4:01 AM)30.23 "Hg (Apr 23, 4:01 AM)
Low47 °F (Apr 19, 6:53 AM)22% (Apr 19, 5:53 PM)29.78 "Hg (May 4, 4:53 AM)
Average74 °F71%29.98 "Hg
* Reported Apr 19 6:53 AM — May 4 6:53 AM, Tallahassee, Weather by CustomWeather, © 2016

Note: Actual official high and low records may vary slightly from our data, if they occured in-between our weather recording intervals... More about our weather records

Advertising

Tallahassee Weather History for the Previous 24 Hours

Scroll right to see more
 ConditionsComfort  
Time TempWeatherWind HumidityBarometerVisibility
6:53 AM
Wed, May 4
70 °FMostly cloudy.6 mph81%29.80 "Hg10 mi
5:53 AM70 °FPartly cloudy.7 mph87%29.79 "Hg10 mi
4:53 AM70 °FPassing clouds.5 mph90%29.78 "Hg10 mi
3:53 AM71 °FMostly cloudy.No wind87%29.80 "Hg10 mi
2:53 AM70 °FPassing clouds.5 mph93%29.82 "Hg10 mi
1:53 AM72 °FOvercast.3 mph91%29.83 "Hg10 mi
12:53 AM73 °FClear.3 mph84%29.82 "Hg10 mi
11:53 PM
Tue, May 3
74 °FPassing clouds.5 mph82%29.84 "Hg10 mi
10:53 PM75 °FThunderstorms. Partly cloudy.3 mph85%29.85 "Hg10 mi
9:53 PM76 °FThunderstorms. Partly cloudy.6 mph85%29.84 "Hg10 mi
8:53 PM77 °FThunderstorms. Broken clouds.8 mph85%29.83 "Hg10 mi
7:53 PM79 °FThunderstorms. Broken clouds.13 mph79%29.83 "Hg10 mi
6:53 PM79 °FThunderstorms. Broken clouds.12 mph79%29.82 "Hg10 mi
5:53 PM78 °FThunderstorms. Broken clouds.15 mph69%29.82 "Hg10 mi
4:53 PM81 °FThunderstorms. Broken clouds.18 mph72%29.83 "Hg10 mi
3:53 PM81 °FThunderstorms. Broken clouds.18 mph67%29.84 "Hg10 mi
2:53 PM90 °FPartly sunny.14 mph39%29.85 "Hg10 mi
1:53 PM86 °FBroken clouds.5 mph48%29.88 "Hg10 mi
12:53 PM86 °FBroken clouds.12 mph48%29.91 "Hg10 mi
11:53 AM84 °FPartly sunny.7 mph55%29.93 "Hg10 mi
10:53 AM82 °FPartly sunny.6 mph63%29.94 "Hg10 mi
9:56 AM80 °FBroken clouds.10 mph71%29.95 "Hg10 mi
8:53 AM73 °FFog.7 mph94%29.94 "Hg1 mi
Weather by CustomWeather, © 2016

See weather overviewHow to use our weather pages